Regional Weather Roundup
Issued by NWS State College, PA

Home | Current Version | Previous Version | Text Only | Print | Product List | Glossary Off
Versions: 1 2 3 4 5 6 7 8 9 10 11 12 13 14 15 16 17 18 19 20 21 22 23 24 25 26 27 28 29 30 31 32 33 34 35 36 37 38 39 40 41 42 43 44 45 46 47 48 49 50

000
ASUS41 KCTP 302303
RWRCTP

REGIONAL WEATHER ROUNDUP
NATIONAL WEATHER SERVICE STATE COLLEGE PA
700 PM EDT THU OCT 30 2014

Note: "fair" indicates few or no clouds below 12,000 feet with no
significant weather and/or obstructions to visibility.

* = STATION THAT DOES NOT REPORT PRECIPITATION /E.G. RAIN...SNOW...ETC/
    THUNDER OR FOG.

PAZ002>004-007>009-013>016-020>023-029>032-310000-
WESTERN PENNSYLVANIA

CITY           SKY/WX    TMP DP  RH WIND       PRES   REMARKS
ERIE           CLOUDY    46  40  79 S3        30.07R
MEADVILLE      CLEAR     43  33  68 CALM      30.06R
FRANKLIN*      CLOUDY    45  36  70 NW3       30.07R
NEW CASTLE       N/A     47  36  65 CALM      30.08R
BEAVER COUNTY  CLOUDY    46  37  71 W3        30.06S
BUTLER*        CLOUDY    46  36  66 CALM      30.08R
PITTSBURGH INT CLOUDY    47  37  68 CALM      30.06S
PITTSBURGH     CLOUDY    47  33  58 NW3       30.05S
INDIANA*       CLOUDY    45  43  93 CALM      30.10R
LATROBE        CLOUDY    46  39  76 CALM      30.08R
WASHINGTON CO* CLOUDY    46  36  66 CALM      30.08S
$$

PAZ004>006-010>012-017>019-024>028-033>037-041-042-045-046-049>053-310000-
CENTRAL PENNSYLVANIA

CITY           SKY/WX    TMP DP  RH WIND       PRES   REMARKS
BRADFORD       CLOUDY    41  32  70 N3        30.04R
DUBOIS         CLOUDY    44  37  76 W7        30.03R
CLEARFIELD     MOCLDY    46  33  60 N5        30.04R
JOHNSTOWN      CLOUDY    43  34  70 W5        30.03R
ALTOONA        CLOUDY    46  37  71 W6        30.04R
STATE COLLEGE  MOCLDY    48  34  57 NW5       30.03S
WILLIAMSPORT   CLOUDY    51  32  48 CALM      30.03R
SELINSGROVE    PTCLDY    48  40  73 CALM      30.04R
FT INDIANTOWN  CLOUDY    50  37  60 CALM      30.04R
CAPITAL CITY   CLOUDY    52  36  54 W3        30.04R
HARRISBURG     MOCLDY    51  36  56 N3        30.03R
YORK           CLOUDY    48  39  71 NW3       30.04R
$$

PAZ038>040-043-044-047-048-054-055-060>062-067>071-310000-
EASTERN PENNSYLVANIA

CITY           SKY/WX    TMP DP  RH WIND       PRES   REMARKS
SCRANTON       CLOUDY    48  31  51 NW6       30.03R
MOUNT POCONO   CLOUDY    42  31  64 NW7       30.01R
ALLENTOWN      CLOUDY    50  34  54 N5        30.03R
QUAKERTOWN*    CLEAR     46  34  61 N3        30.03S
READING        PTCLDY    50  33  52 N3        30.02R
LANCASTER      MOCLDY    49  36  61 NW5       30.03R
COATESVILLE    MOCLDY    46  37  71 NW6       30.03R
POTTSTOWN      CLEAR     49  34  56 NW3       30.04R
BLUE BELL      CLEAR     46  39  76 CALM      30.01R
DOYLESTOWN     CLEAR     47  35  63 N6        30.02R
WILLOW GROVE   NOT AVBL
NORTH PHILA    CLEAR     51  34  52 N7        30.03R
PHILADELPHIA   PTCLDY    54  36  50 N7        30.02R
$$



USA.gov is the U.S. government's official web portal to all federal, state and local government web resources and services.